Location: Perryvale
(54.4667°N, 113.3833°W)
Time: 00:17:01
(UTC+00:00)

Vanguard 1 Rocket - Pass Details

Date: 25 May 2024
Orbit: 649 x 4221 km, 34.3° (Epoch: 13 June)

Event Time Altitude Azimuth Distance (km) Brightness Sun altitude
Rises 19:54:25 0° 261° (W) 7,213 12.1 56.4°
Reaches altitude 10° 20:01:12 10° 250° (WSW) 5,522 11.8 56.2°
Maximum altitude 20:11:24 23° 207° (SSW) 3,394 11.4 55.8°
Drops below altitude 10° 20:18:04 10° 160° (SSE) 3,454 10.9 55.5°
Sets 20:21:06 0° 144° (SE) 4,035 11.0 55.3°
